Tracking 30115 objects as of 16-Jan-2025
HD Live streaming from Space Station
objects crossing your sky now

STARLINK-30221

Track STARLINK-30221 now!
10-day predictions
STARLINK-30221 is classified as:


NORAD ID: 57418
Int'l Code: 2023-102Q
Perigee: 565.3 km
Apogee: 567.1 km
Inclination: 43.0 °
Period: 95.8 minutes
Semi major axis: 6937 km
RCS: Unknown
Launch date: July 20, 2023
Source: United States (US)
Launch site: AIR FORCE WESTERN TEST RANGE (AFWTR)
Your satellite tracking list
Your tracking list is empty




NASA's NSSDC Master Catalog

Two Line Element Set (TLE):
1 57418U 23102Q   25015.03612314 -.00000244  00000-0 -29852-5 0  9999
2 57418  43.0048   3.4080 0001252 260.2708  99.7993 15.02542797 83263
Source of the keplerian elements: AFSPC